Location: Newark
(46.7636°N, 1.8358°W)
Time: 04:56:34
(UTC+00:00)

Vanguard 1 Rocket - Pass Details

Date: 29 October 2019
Orbit: 651 x 4225 km, 34.3° (Epoch: 14 November)

Event Time Altitude Azimuth Distance (km) Brightness Sun altitude
Rises 14:28:36 0° 276° (W) 6,460 12.2 20.2°
Reaches altitude 10° 14:32:57 10° 268° (W) 5,890 12.3 19.7°
Maximum altitude 14:49:24 33° 213° (SSW) 5,339 13.0 17.7°
Drops below altitude 10° 15:10:21 10° 160° (SSE) 7,361 12.3 15.1°
Sets 15:16:54 0° 152° (SSE) 8,198 12.4 14.2°
